Weather History for Bradshaw AFB, HI

Change the Weather History Date:

Tuesday, January 14, 2014

  Actual Average Record
Temperature  
Mean Temperature 52 °F -  
Max Temperature 62 °F 63 °F 75 °F (2011)
Min Temperature 42 °F 42 °F 33 °F (2008)
Degree Days  
Heating Degree Days 13    
Growing Degree Days 2 (Base 50)    
Moisture  
Dew Point 46 °F    
Average Humidity 81    
Maximum Humidity 95    
Minimum Humidity 41    
Precipitation  
Precipitation 0.01 in - - ()
Sea Level Pressure  
Sea Level Pressure 30.22 in    
Wind  
Wind Speed 4 mph (West)    
Max Wind Speed 8 mph    
Max Gust Speed 15 mph    
Visibility 10 miles    
Events Rain    
Averages and records for this station are not official NWS values.
T = Trace of Precipitation, MM = Missing Value Source: NWS Daily Summary

Daily Weather History Graph

Daily Weather History Graph

Search for Another Location

Airport:

Trip Planner

Search our weather history database for the weather conditions in past years. The results will help you decide how hot, cold, wet, or windy it might be!

Date:

Astronomy

Jan. 14, 2014 Rise Set
Actual Time 6:59 AM HST 6:03 PM HST
Civil Twilight 6:36 AM HST 6:26 PM HST
Nautical Twilight 6:08 AM HST 6:54 PM HST
Astronomical Twilight 5:42 AM HST 7:20 PM HST
Moon 5:13 PM HST (1/14) 5:45 AM HST (1/14)
Length of Visible Light 11h 50m
Length of Day
11h 03m
Waxing Gibbous, 99% of the Moon is Illuminated
Jan 14
Waxing Gibbous
Jan 15
Full
Jan 23
Last Quarter
Jan 30
New
Feb 6
First Quarter

Hourly Weather History & Observations

Time (HST) Temp. Windchill Dew Point Humidity Pressure Visibility Wind Dir Wind Speed Gust Speed Precip Events Conditions
12:56 AM 46.6 °F - 43.0 °F 87% 30.23 in 10.0 mi ESE 1.2 mph - N/A   Clear
1:56 AM 45.5 °F - 42.3 °F 88% 30.22 in 9.0 mi ESE 2.3 mph - N/A   Clear
2:56 AM 43.9 °F 40.5 °F 41.9 °F 93% 30.21 in 7.0 mi ESE 5.8 mph - N/A   Clear
3:56 AM 43.2 °F 41.5 °F 40.6 °F 91% 30.21 in 8.0 mi ESE 3.5 mph - N/A   Clear
4:56 AM 43.3 °F 41.7 °F 41.5 °F 93% 30.22 in 6.0 mi ESE 3.5 mph - N/A   Clear
5:56 AM 42.8 °F - 41.5 °F 95% 30.22 in 5.0 mi ESE 2.3 mph - N/A   Clear
6:56 AM 45.0 °F 43.5 °F 40.8 °F 85% 30.23 in 12.0 mi NNE 3.5 mph - N/A   Clear
7:56 AM 50.7 °F - 44.2 °F 78% 30.24 in 12.0 mi NNE 2.3 mph - N/A   Clear
8:56 AM 57.9 °F - 43.9 °F 60% 30.25 in 12.0 mi WSW 3.5 mph - N/A   Clear
9:56 AM 59.0 °F - 39.9 °F 49% 30.26 in 12.0 mi WSW 5.8 mph - N/A   Clear
10:56 AM 61.2 °F - 37.2 °F 41% 30.25 in 12.0 mi WSW 5.8 mph - N/A   Clear
11:56 AM 61.7 °F - 44.1 °F 52% 30.23 in 12.0 mi West 6.9 mph 12.7 mph N/A   Clear
12:56 PM 62.8 °F - 49.8 °F 63% 30.20 in 12.0 mi West 8.1 mph 15.0 mph N/A   Partly Cloudy
1:56 PM 61.0 °F - 47.8 °F 62% 30.18 in 11.0 mi WSW 8.1 mph - N/A   Partly Cloudy
2:56 PM 60.6 °F - 49.1 °F 66% 30.16 in 11.0 mi WSW 6.9 mph 15.0 mph N/A   Partly Cloudy
3:56 PM 60.3 °F - 47.8 °F 64% 30.17 in 12.0 mi West 6.9 mph - N/A   Clear
4:56 PM 58.1 °F - 49.1 °F 72% 30.19 in 12.0 mi West 6.9 mph - N/A   Clear
5:56 PM 54.9 °F - 49.6 °F 83% 30.20 in 12.0 mi West 5.8 mph - N/A   Partly Cloudy
6:56 PM 52.5 °F - 50.0 °F 91% 30.21 in 12.0 mi WSW 3.5 mph - N/A   Partly Cloudy
7:36 PM 51.8 °F - 50.0 °F 94% 30.23 in 7.0 mi West 4.6 mph - N/A   Mostly Cloudy
7:44 PM 51.8 °F - 50.0 °F 94% 30.23 in 4.0 mi West 5.8 mph - N/A Rain Light Rain
7:56 PM 51.6 °F - 50.4 °F 95% 30.23 in 4.0 mi West 6.9 mph - 0.01 in Rain Light Rain Showers
8:01 PM 51.8 °F - 50.0 °F 94% 30.24 in 4.0 mi West 5.8 mph - N/A Rain Light Rain Showers
8:06 PM 51.8 °F - 50.0 °F 94% 30.24 in 9.0 mi West 4.6 mph - N/A Rain Light Rain Showers
8:12 PM 51.8 °F - 50.0 °F 94% 30.24 in 12.0 mi West 4.6 mph - N/A   Mostly Cloudy
8:17 PM 51.8 °F - 50.0 °F 94% 30.24 in 12.0 mi West 3.5 mph - N/A   Overcast
8:22 PM 51.8 °F - 50.0 °F 94% 30.24 in 12.0 mi West 3.5 mph - N/A   Overcast
8:27 PM 51.8 °F - 50.0 °F 94% 30.24 in 12.0 mi WNW 3.5 mph - N/A   Overcast
8:56 PM 55.4 °F - - N/A% 30.24 in 12.0 mi WNW 2.3 mph - N/A   Mostly Cloudy
9:56 PM 53.6 °F - - N/A% 30.25 in 12.0 mi NNW 3.5 mph - N/A   Mostly Cloudy
10:56 PM 53.6 °F - - N/A% 30.25 in 12.0 mi North 5.8 mph - N/A   Clear
11:56 PM 55.4 °F - - N/A% 30.24 in 12.0 mi WNW 4.6 mph - N/A   Clear